Location: Sungai Bunut
(2.6333°N, 113.7333°E)
Time: 14:46:21
(UTC+00:00)

Altair - Pass Details

Date: 11 December 2023
Orbit: 1501 x 1682 km, 47.2° (Epoch: 24 February)

Event Time Altitude Azimuth Distance (km) Brightness Sun altitude
Rises 17:57:36 0° 193° (SSW) 4,916 10.4 -58.5°
Reaches altitude 10° 18:01:51 10° 178° (S) 3,939 9.8 -57.7°
Maximum altitude 18:09:06 22° 131° (SE) 3,094 9.3 -56.3°
Drops below altitude 10° 18:16:16 10° 85° (E) 3,921 9.9 -54.9°
Sets 18:20:25 0° 71° (ENE) 4,890 10.4 -54.1°
